Regional Weather Roundup
Issued by NWS

Home | Current Version | Previous Version | Graphics & Text | Print | Product List | Glossary Off
Versions: 1 2 3 4 5 6 7 8 9 10 11 12 13 14 15 16 17 18 19 20 21 22 23 24 25 26 27 28 29 30 31 32 33 34 35 36 37 38 39 40 41 42 43 44 45 46 47 48 49 50

000
ASUS43 KDMX 182007
RWRIA

WEATHER ROUNDUP FOR IOWA
NATIONAL WEATHER SERVICE DES MOINES IA
300 PM CDT SAT APR 18 2015

NOTE: "FAIR" INDICATES FEW OR NO CLOUDS BELOW 12,000 FEET WITH NO
SIGNIFICANT WEATHER AND/OR OBSTRUCTIONS TO VISIBILITY.

* - THESE STATIONS ARE NOT NWS STATIONS...THUS NOT UNDER NWS
QUALITY CONTROL.  THEY ALSO DO NOT REPORT WEATHER SUCH
AS PRECIPITATION OR FOG.

IAZ001>003-012>014-020>022-031>034-043>046-182100-
   NORTHWEST IOWA

CITY           SKY/WX    TMP DP  RH WIND       PRES   REMARKS
CARROLL *      LGT RAIN  59  59 100 W10G17    29.90R
CHEROKEE *     RAIN      57  57 100 NE3       29.92S
DENISON *      LGT RAIN  57  57 100 E5        29.88F
LE MARS *      LGT RAIN  59  57  94 MISG      29.89F
ORANGE CITY *  LGT RAIN N/A N/A N/A E7        29.91F
SHELDON *      LGT RAIN  57  57 100 SE8G15    29.92F
SIOUX CITY     CLOUDY    62  57  83 E15       29.87S
SPENCER        LGT RAIN  58  55  90 W12       29.92F
STORM LAKE *   RAIN      57  57 100 CALM      29.92F
$$

IAZ055>058-069>071-079>083-090>094-182100-
   SOUTHWEST IOWA

CITY           SKY/WX    TMP DP  RH WIND       PRES   REMARKS
ATLANTIC *     LGT RAIN  59  59 100 NW7       29.90F
AUDUBON *      RAIN      59  55  88 CALM      29.93S
CLARINDA *     LGT RAIN  63  63 100 N7        29.90F
COUNCIL BLFS * LGT RAIN  59  59 100 SE10      29.91S
CRESTON *      CLOUDY    61  61 100 NW12      29.90S
HARLAN  *      LGT RAIN  59  59 100 CALM      29.94F
LAMONI         CLOUDY    66  60  81 NW7       29.90F
RED OAK *      DRIZZLE   61  61 100 CALM      29.90F
SHENANDOAH *   LGT RAIN  61  61 100 W7        29.88F
$$

IAZ047>049-059>061-072>074-084-182100-
   CENTRAL IOWA

CITY           SKY/WX    TMP DP  RH WIND       PRES   REMARKS
AMES           CLOUDY    70  56  61 SE9G20    29.87F
ANKENY *       CLOUDY    70  54  56 S23G35    29.88R
CHARITON *     DRIZZLE   63  59  88 SW9       29.92R
DES MOINES     LGT RAIN  66  56  70 S17G29    29.90R
GRINNELL*      CLOUDY    73  54  49 SE17G25   29.90F
KNOXVILLE *    SUNNY     70  57  64 S12G20    29.89S HAZE
MARSHALLTOWN   CLOUDY    74  53  48 SE20G26   29.89F
PELLA *        CLOUDY    73  59  60 S16G22    29.90F
PERRY *        LGT RAIN  61  61 100 CALM      29.89F
$$

IAZ004>006-015-016-023>025-035-036-182100-
   NORTH CENTRAL IOWA

CITY           SKY/WX    TMP DP  RH WIND       PRES   REMARKS
ALGONA *       CLOUDY    55  55 100 NE9       29.91F
CLARION *      LGT RAIN  63  55  77 NE8       29.89F
ESTHERVILLE    LGT RAIN  56  55  97 E8        29.93F FOG
FORT DODGE *   CLOUDY    63  52  67 NE9       29.89F
MASON CITY     CLOUDY    76  47  35 SE17      29.90F
FOREST CITY *  DRIZZLE   64  50  59 N6        29.90F
IOWA FALLS *   LGT RAIN  70  54  56 SE13      29.89F
$$

IAZ007>011-017>019-026>030-037>042-050>054-066-182100-
   NORTHEAST IOWA

CITY           SKY/WX    TMP DP  RH WIND       PRES   REMARKS
CEDAR RAPIDS     N/A     78  54  43 SE13G23   29.91F
CHARLES CITY * MOSUNNY   77  46  33 SE23G29   29.91F
CLINTON *      CLOUDY    73  46  38 E16       29.98F
DECORAH *      PTSUNNY   73  43  33 E20G25    29.97F
DUBUQUE        PTSUNNY   73  41  31 E16       29.99F
MONTICELLO *   SUNNY     77  48  36 E17G23    29.94F
OELWEIN *      MOSUNNY   79  48  34 SE18G26   29.94F
WATERLOO       PTSUNNY   76  50  40 SE17      29.90F
$$

IAZ064-065-067-068-078-182100-
   EAST CENTRAL IOWA

CITY           SKY/WX    TMP DP  RH WIND       PRES   REMARKS
DAVENPORT      CLOUDY    72  52  49 E15G25    29.95F
IOWA CITY      CLOUDY    75  55  49 SE14G22   29.92F
MT. PLEASANT * PTSUNNY   79  50  36 SE16G28   29.91F
MUSCATINE *    MOSUNNY   77  54  44 SE13G18   29.91F
QUAD CITIES    PTSUNNY   80  52  37 SE9       29.92F HX  80
$$

IAZ062-063-075>077-085>089-095>099-182100-
   SOUTHEAST IOWA

CITY           SKY/WX    TMP DP  RH WIND       PRES   REMARKS
BURLINGTON     MOSUNNY   79  55  43 SE15G23   29.91F
FAIRFIELD *    MOSUNNY   77  52  41 SE21G29   29.90F
FORT MADISON * MOSUNNY   79  54  41 SE15G23   29.92F
KEOKUK *       PTSUNNY   77  57  50 SE13      29.90F
OSKALOOSA *    PTSUNNY   77  52  41 SE18G25   29.89F
CENTERVILLE *  SUNNY     72  64  78 S5        29.91F
OTTUMWA        CLOUDY    78  54  43 S16G28    29.89F
WASHINGTON *   MOSUNNY   81  52  36 SE17G28   29.90F HX  80
$$

ABBREVIATIONS USED IN REMARKS
   TC - TEMPERATURES IN CELSIUS
  WCI - WIND CHILL INDEX
   HX - HEAT INDEX
  VSB - VISIBILITY
$$




USA.gov is the U.S. government's official web portal to all federal, state and local government web resources and services.